Home   Weather   Provincetown   Past weeks

Flag for USA Past Weather in Provincetown, Massachusetts, USA — Yesterday and Last 2 Weeks

Now
57 °F

Partly sunny.


Feels Like: 53 °F
Forecast: 56 / 60 °F
Wind: 17 mph from Northeast

Location: Provincetown Weather Reporting Station

Current Time: Sep 29, 2016 at 7:55:05 AM

Latest Report: Sep 29, 2016 at 6:56 AM


Visibility: 10 mi

Pressure: 30.37 "Hg

Humidity: 87%

Dew Point: 53 °F

Location of ProvincetownLocation

Past Weather in Provincetown — Graph

°F

Provincetown Temperature Yesterday

Maximum temperature yesterday: 61 °F (at 12:56 AM)
Minimum temperature yesterday: 59 °F (at 7:56 AM)
Average temperature yesterday: 60 °F

High & Low Weather Summary for the Past Weeks

 TemperatureHumidityPressure
High79 °F (Sep 14, 12:56 PM)100% (Sep 19, 5:56 AM)30.38 "Hg (Sep 19, 5:56 AM)
Low41 °F (Sep 16, 4:56 AM)42% (Sep 25, 11:56 AM)29.88 "Hg (Sep 27, 9:56 AM)
Average64 °F78%30.12 "Hg
* Reported Sep 14 5:56 AM — Sep 29 5:56 AM, Provincetown, Weather by CustomWeather, © 2016

Note: Actual official high and low records may vary slightly from our data, if they occured in-between our weather recording intervals... More about our weather records

Advertising

Provincetown Weather History for the Previous 24 Hours

Scroll right to see more
 ConditionsComfort  
Time TempWeatherWind HumidityBarometerVisibility
5:56 AM
Thu, Sep 29
58 °FOvercast.20 mph84%30.36 "Hg10 mi
4:56 AM58 °FOvercast.17 mph87%30.34 "Hg9 mi
3:56 AM58 °FOvercast.22 mph87%30.34 "Hg10 mi
2:56 AM59 °FOvercast.20 mph84%30.31 "Hg9 mi
1:56 AM60 °FOvercast.21 mph83%30.31 "Hg10 mi
12:56 AM59 °FOvercast.18 mph90%30.31 "Hg9 mi
11:56 PM
Wed, Sep 28
60 °FOvercast.16 mph86%30.32 "Hg10 mi
10:56 PM61 °FOvercast.17 mph83%30.30 "Hg10 mi
9:56 PM60 °FOvercast.17 mph90%30.28 "Hg10 mi
8:56 PM60 °FOvercast.17 mph93%30.28 "Hg7 mi
7:56 PM60 °FOvercast.18 mph93%30.25 "Hg8 mi
6:56 PM59 °FLight rain. Fog.21 mph96%30.24 "Hg5 mi
5:56 PM59 °FLight rain. Fog.18 mph96%30.23 "Hg2 mi
4:56 PM59 °FLight rain. Fog.20 mph93%30.22 "Hg2 mi
3:56 PM59 °FFog.16 mph90%30.22 "Hg6 mi
2:56 PM59 °FOvercast.21 mph87%30.21 "Hg9 mi
1:56 PM59 °FOvercast.18 mph87%30.20 "Hg10 mi
12:56 PM60 °FOvercast.20 mph86%30.21 "Hg10 mi
11:56 AM61 °FMostly cloudy.21 mph87%30.19 "Hg7 mi
10:56 AM60 °FOvercast.20 mph90%30.19 "Hg9 mi
9:56 AM60 °FMostly cloudy.18 mph86%30.19 "Hg10 mi
8:56 AM60 °FOvercast.17 mph86%30.19 "Hg10 mi
7:56 AM59 °FOvercast.16 mph87%30.16 "Hg10 mi
Weather by CustomWeather, © 2016

See weather overviewHow to use our weather pages